2 Carport Messungen

Zurück zum Überblick

Zeitpunkt Temperatur Luftfeuchte
08.12.2019 04:49:18 8,2 C 75,0%
08.12.2019 04:42:14 8,2 C 75,0%
08.12.2019 04:35:12 8,3 C 75,0%
08.12.2019 04:28:09 8,3 C 75,0%
08.12.2019 04:21:07 8,3 C 76,0%
08.12.2019 04:14:04 8,4 C 76,0%
08.12.2019 04:07:03 8,4 C 76,0%
08.12.2019 04:00:02 8,4 C 75,0%
08.12.2019 03:53:02 8,4 C 75,0%
08.12.2019 03:46:00 8,5 C 75,0%
08.12.2019 03:38:58 8,5 C 75,0%
08.12.2019 03:31:58 8,5 C 75,0%
08.12.2019 03:24:56 8,5 C 75,0%
08.12.2019 03:17:53 8,5 C 75,0%
08.12.2019 03:10:50 8,5 C 75,0%
08.12.2019 03:03:48 8,5 C 75,0%
08.12.2019 02:56:46 8,6 C 75,0%
08.12.2019 02:49:45 8,6 C 75,0%
08.12.2019 02:42:41 8,6 C 75,0%
08.12.2019 02:35:41 8,7 C 75,0%
08.12.2019 02:28:38 8,7 C 76,0%
08.12.2019 02:21:37 8,7 C 76,0%
08.12.2019 02:14:37 8,7 C 76,0%
08.12.2019 02:07:34 8,7 C 77,0%
08.12.2019 02:00:33 8,6 C 77,0%
08.12.2019 01:53:31 8,6 C 77,0%
08.12.2019 01:46:31 8,4 C 77,0%
08.12.2019 01:39:28 8,3 C 78,0%
08.12.2019 01:32:26 8,1 C 78,0%
08.12.2019 01:25:22 7,8 C 79,0%
08.12.2019 01:18:20 7,5 C 80,0%
08.12.2019 01:11:18 6,9 C 81,0%
08.12.2019 01:04:16 6,5 C 81,0%
08.12.2019 00:57:15 6,5 C 81,0%
08.12.2019 00:50:12 6,5 C 81,0%
08.12.2019 00:43:11 6,5 C 81,0%
08.12.2019 00:36:08 6,4 C 81,0%
08.12.2019 00:29:05 6,5 C 81,0%
08.12.2019 00:22:01 6,5 C 81,0%
08.12.2019 00:15:00 6,5 C 81,0%
08.12.2019 00:07:59 6,5 C 80,0%
08.12.2019 00:00:56 6,5 C 80,0%